Location: Hochstatterhof
(48.7256°N, 10.3487°E)
Time: 01:22:33
(UTC+00:00)

Cosmos 1805 Rocket - Pass Details

Date: 26 September 2023
Orbit: 605 x 626 km, 82.5° (Epoch: 04 December)

Event Time Altitude Azimuth Distance (km) Brightness Sun altitude
Rises 04:29:05 0° 344° (NNW) 2,873 6.9 -7.6°
Reaches altitude 10° 04:31:22 10° 338° (NNW) 1,965 6.0 -7.2°
Maximum altitude 04:35:29 44° 267° (W) 852 3.8 -6.6°
Drops below altitude 10° 04:39:35 10° 196° (SSW) 1,956 5.9 -5.9°
Sets 04:41:52 0° 189° (S) 2,858 6.8 -5.5°
